{"data":{"norad_id":62868,"intl_designator":"2025-022Q","name":"STARLINK-32822","alt_names":[],"object_type":"PAYLOAD","status":"ACTIVE","operator":null,"country":"US","launch_date":"2025-02-01","launch_site_code":"AFWTR","launch_vehicle":null,"mission":null,"orbit_class":"UNKNOWN","rcs_meters":null,"size_class":null,"mass_kg":null,"dimensions":null,"purposes":["comms"],"wikipedia_slug":null,"has_3d_model":false,"image_url":null,"decayed_at":null,"tle_current":{"epoch":"2026-09-21T03:44:39.259680Z","epoch_age_seconds":111878,"freshness":"FRESH","line1":"1 62868U 25022Q   26264.15600995  .00009969  00000+0  30579-3 0  9995","line2":"2 62868  53.1601 298.3784 0001490  88.9083 271.2090 15.34400031 91876","mean_motion":15.34400031,"eccentricity":0.000149,"inclination_deg":53.1601,"raan_deg":298.3784,"arg_perigee_deg":88.9083,"mean_anomaly_deg":271.209,"bstar":0.00030579,"rev_number":9187,"period_min":93.847756185297,"perigee_km":461.68386288651,"apogee_km":463.72243325064,"semimajor_km":6840.8401480686,"source":"CELESTRAK","updated_at":"2026-09-22T09:00:49.699733Z"}}}